PTAJQ SBBI-SBSP

Flight info

Callsign PTAJQ
Flight time N/A
Altitude 9000
Route ATIMA SOVSI
Aircraft BE58/L-SDFGRY/S

Departure

Time 2026-04-16 18:09
Airport Bacacheri Airport (SBBI)

Arrival

Time N/A
Airport Congonhas–Deputado Freitas Nobre Airport (SBSP)
Time Latitude Longitude Altitude Speed Heading
2026-04-16 17:55 -25.40314 -49.23012 3026 ft 0 kts 11°
2026-04-16 18:02 -25.40300 -49.23011 3026 ft 4 kts 337°
2026-04-16 18:02 -25.40291 -49.23037 3027 ft 2 kts 283°
2026-04-16 18:02 -25.40289 -49.23054 3028 ft 2 kts 246°
2026-04-16 18:02 -25.40319 -49.23064 3029 ft 6 kts 191°
2026-04-16 18:03 -25.40376 -49.23077 3032 ft 8 kts 212°
2026-04-16 18:03 -25.40396 -49.23125 3035 ft 5 kts 245°
2026-04-16 18:03 -25.40410 -49.23161 3038 ft 5 kts 250°
2026-04-16 18:03 -25.40443 -49.23170 3040 ft 8 kts 158°
2026-04-16 18:04 -25.40519 -49.23136 3041 ft 14 kts 157°
2026-04-16 18:04 -25.40621 -49.23091 3042 ft 15 kts 157°
2026-04-16 18:04 -25.40717 -49.23047 3043 ft 14 kts 158°
2026-04-16 18:04 -25.40804 -49.23009 3044 ft 12 kts 158°
2026-04-16 18:05 -25.40882 -49.22973 3044 ft 12 kts 158°
2026-04-16 18:05 -25.40967 -49.22935 3042 ft 13 kts 157°
2026-04-16 18:05 -25.40993 -49.22923 3042 ft 0 kts 159°
2026-04-16 18:07 -25.40995 -49.22922 3042 ft 1 kts 159°
2026-04-16 18:07 -25.41039 -49.22913 3042 ft 10 kts 184°
2026-04-16 18:07 -25.41077 -49.22940 3042 ft 2 kts 265°
2026-04-16 18:08 -25.41053 -49.22953 3043 ft 14 kts 338°
2026-04-16 18:08 -25.40703 -49.23114 3046 ft 86 kts 337°
2026-04-16 18:08 -25.40062 -49.23399 3132 ft 104 kts 336°
2026-04-16 18:08 -25.39366 -49.23738 3262 ft 116 kts 335°
2026-04-16 18:09 -25.38600 -49.24089 3507 ft 118 kts 339°
2026-04-16 18:09 -25.37857 -49.24317 3962 ft 104 kts 351°
2026-04-16 18:09 -25.37108 -49.24257 4172 ft 114 kts
2026-04-16 18:09 -25.36341 -49.24091 4472 ft 111 kts
2026-04-16 18:10 -25.35512 -49.24031 4581 ft 127 kts
2026-04-16 18:10 -25.34617 -49.23960 4760 ft 130 kts
2026-04-16 18:10 -25.33705 -49.23875 4961 ft 132 kts
2026-04-16 18:10 -25.32779 -49.23784 5167 ft 133 kts
2026-04-16 18:11 -25.31850 -49.23694 5367 ft 133 kts
2026-04-16 18:11 -25.30929 -49.23601 5562 ft 133 kts
2026-04-16 18:11 -25.29999 -49.23513 5756 ft 134 kts
2026-04-16 18:11 -25.29072 -49.23423 5950 ft 134 kts
2026-04-16 18:12 -25.28150 -49.23337 6150 ft 133 kts
2026-04-16 18:12 -25.27220 -49.23245 6340 ft 133 kts
2026-04-16 18:12 -25.26296 -49.23152 6528 ft 133 kts
2026-04-16 18:12 -25.25379 -49.23064 6706 ft 133 kts
2026-04-16 18:13 -25.24431 -49.22929 6834 ft 138 kts 17°
2026-04-16 18:13 -25.23737 -49.22206 6960 ft 145 kts 63°
2026-04-16 18:13 -25.23600 -49.21090 7109 ft 148 kts 88°
2026-04-16 18:13 -25.23621 -49.19946 7265 ft 149 kts 90°
2026-04-16 18:14 -25.23671 -49.18807 7426 ft 149 kts 91°
2026-04-16 18:14 -25.23726 -49.17667 7569 ft 149 kts 92°
2026-04-16 18:14 -25.23784 -49.16525 7718 ft 149 kts 92°
2026-04-16 18:14 -25.23847 -49.15371 7863 ft 149 kts 92°
2026-04-16 18:15 -25.23904 -49.14229 8000 ft 149 kts 92°
2026-04-16 18:15 -25.23960 -49.13089 8134 ft 149 kts 92°
2026-04-16 18:15 -25.24018 -49.11959 8280 ft 149 kts 93°
2026-04-16 18:15 -25.24075 -49.10805 8414 ft 150 kts 94°
2026-04-16 18:16 -25.24133 -49.09650 8546 ft 151 kts 93°
2026-04-16 18:16 -25.24192 -49.08498 8677 ft 151 kts 94°
2026-04-16 18:16 -25.24252 -49.07312 8825 ft 159 kts 94°
2026-04-16 18:16 -25.24318 -49.06076 8993 ft 164 kts 94°
2026-04-16 18:17 -25.24383 -49.04771 9053 ft 176 kts 93°
2026-04-16 18:17 -25.24451 -49.03375 9068 ft 188 kts 93°
2026-04-16 18:17 -25.24523 -49.01893 9067 ft 197 kts 93°
2026-04-16 18:17 -25.24603 -49.00357 9059 ft 203 kts 93°
2026-04-16 18:18 -25.24678 -48.98793 9052 ft 206 kts 94°
2026-04-16 18:18 -25.24757 -48.97195 9047 ft 208 kts 93°
2026-04-16 18:18 -25.24835 -48.95592 9042 ft 209 kts 94°
2026-04-16 18:18 -25.24915 -48.94001 9031 ft 210 kts 94°
2026-04-16 18:19 -25.24992 -48.92396 9032 ft 210 kts 93°
2026-04-16 18:19 -25.25077 -48.90779 9020 ft 210 kts 93°
2026-04-16 18:19 -25.25155 -48.89176 9019 ft 210 kts 93°
2026-04-16 18:19 -25.25234 -48.87566 9009 ft 211 kts 93°
2026-04-16 18:20 -25.25312 -48.85944 8998 ft 212 kts 93°
2026-04-16 18:20 -25.25390 -48.84323 8983 ft 211 kts 93°
2026-04-16 18:20 -25.25468 -48.82700 8968 ft 211 kts 93°
2026-04-16 18:20 -25.25547 -48.81072 8969 ft 211 kts 94°
2026-04-16 18:21 -25.25631 -48.79461 8960 ft 211 kts 93°
2026-04-16 18:21 -25.25702 -48.77853 8952 ft 211 kts 94°
2026-04-16 18:21 -25.25779 -48.76248 8953 ft 210 kts 93°
2026-04-16 18:21 -25.25859 -48.74625 8952 ft 211 kts 93°
2026-04-16 18:22 -25.25934 -48.73013 8970 ft 212 kts 93°
2026-04-16 18:22 -25.26007 -48.71381 8942 ft 212 kts 93°
2026-04-16 18:22 -25.26077 -48.69750 8936 ft 211 kts 93°
2026-04-16 18:22 -25.26148 -48.68153 8926 ft 210 kts 94°
2026-04-16 18:23 -25.26222 -48.66537 8934 ft 209 kts 94°
2026-04-16 18:23 -25.26297 -48.64941 8942 ft 209 kts 94°
2026-04-16 18:23 -25.26374 -48.63322 8951 ft 210 kts 94°
2026-04-16 18:23 -25.26449 -48.61713 8948 ft 210 kts 93°
2026-04-16 18:24 -25.26524 -48.60111 8937 ft 210 kts 94°
2026-04-16 18:24 -25.26600 -48.58501 8946 ft 210 kts 93°
2026-04-16 18:24 -25.26675 -48.56889 8947 ft 210 kts 94°
2026-04-16 18:24 -25.26750 -48.55284 8937 ft 210 kts 93°
2026-04-16 18:25 -25.26825 -48.53672 8931 ft 210 kts 93°
2026-04-16 18:25 -25.26899 -48.52066 8935 ft 210 kts 93°
2026-04-16 18:25 -25.26973 -48.50447 8935 ft 210 kts 93°
2026-04-16 18:25 -25.27048 -48.48838 8940 ft 210 kts 93°
2026-04-16 18:26 -25.27122 -48.47213 8935 ft 210 kts 93°
2026-04-16 18:26 -25.27195 -48.45615 8931 ft 210 kts 93°
2026-04-16 18:26 -25.27269 -48.43991 8933 ft 210 kts 94°
2026-04-16 18:26 -25.27341 -48.42404 8938 ft 209 kts 94°
2026-04-16 18:27 -25.27414 -48.40801 8933 ft 209 kts 94°
2026-04-16 18:27 -25.27488 -48.39202 8941 ft 208 kts 94°
2026-04-16 18:27 -25.27562 -48.37598 8948 ft 209 kts 93°
2026-04-16 18:27 -25.27636 -48.35990 8940 ft 209 kts 93°
2026-04-16 18:28 -25.27708 -48.34396 8939 ft 208 kts 93°
2026-04-16 18:28 -25.27779 -48.32802 8945 ft 208 kts 93°
2026-04-16 18:28 -25.27850 -48.31193 8942 ft 209 kts 92°
2026-04-16 18:28 -25.27488 -48.29678 8933 ft 207 kts 51°
2026-04-16 18:29 -25.26331 -48.28764 8962 ft 204 kts 29°
2026-04-16 18:29 -25.25158 -48.27890 8962 ft 205 kts 31°
2026-04-16 18:29 -25.23931 -48.27056 8953 ft 205 kts 30°
2026-04-16 18:29 -25.22723 -48.26205 8959 ft 205 kts 30°
2026-04-16 18:30 -25.21515 -48.25362 8961 ft 205 kts 31°
2026-04-16 18:30 -25.20318 -48.24517 8967 ft 205 kts 31°
2026-04-16 18:30 -25.19103 -48.23661 8965 ft 206 kts 31°
2026-04-16 18:30 -25.17910 -48.22819 8951 ft 205 kts 32°
2026-04-16 18:31 -25.16701 -48.21961 8952 ft 205 kts 31°
2026-04-16 18:31 -25.15498 -48.21101 8952 ft 204 kts 31°
2026-04-16 18:31 -25.14297 -48.20251 8961 ft 204 kts 31°
2026-04-16 18:31 -25.13098 -48.19396 8969 ft 206 kts 31°
2026-04-16 18:32 -25.11897 -48.18547 8968 ft 206 kts 31°
2026-04-16 18:32 -25.10684 -48.17688 8956 ft 206 kts 31°
2026-04-16 18:32 -25.09481 -48.16836 8953 ft 205 kts 31°
2026-04-16 18:32 -25.08277 -48.15984 8956 ft 205 kts 31°
2026-04-16 18:33 -25.07074 -48.15136 8962 ft 205 kts 31°
2026-04-16 18:33 -25.05873 -48.14282 8968 ft 205 kts 31°
2026-04-16 18:33 -25.04672 -48.13434 8950 ft 205 kts 32°
2026-04-16 18:33 -25.03454 -48.12572 8957 ft 205 kts 31°
2026-04-16 18:34 -25.02254 -48.11721 8956 ft 206 kts 32°
2026-04-16 18:34 -25.01055 -48.10871 8949 ft 206 kts 32°
2026-04-16 18:34 -24.99837 -48.10008 8949 ft 206 kts 31°
2026-04-16 18:34 -24.98633 -48.09155 8943 ft 205 kts 31°
2026-04-16 18:35 -24.97441 -48.08311 8924 ft 204 kts 31°
2026-04-16 18:35 -24.96243 -48.07465 8929 ft 203 kts 31°
2026-04-16 18:35 -24.95048 -48.06617 8949 ft 204 kts 31°
2026-04-16 18:35 -24.93848 -48.05774 8947 ft 205 kts 31°
2026-04-16 18:36 -24.92654 -48.04928 8940 ft 206 kts 31°
2026-04-16 18:36 -24.91439 -48.04073 8930 ft 206 kts 32°
2026-04-16 18:36 -24.90236 -48.03223 8919 ft 205 kts 32°
2026-04-16 18:36 -24.89028 -48.02369 8919 ft 204 kts 31°
2026-04-16 18:37 -24.87834 -48.01526 8927 ft 204 kts 32°
2026-04-16 18:37 -24.86755 -48.00764 8916 ft 204 kts 31°
2026-04-16 18:37 -24.85556 -47.99918 8911 ft 204 kts 31°
2026-04-16 18:37 -24.84356 -47.99073 8916 ft 204 kts 32°
2026-04-16 18:38 -24.83169 -47.98237 8919 ft 204 kts 32°
2026-04-16 18:38 -24.81960 -47.97385 8931 ft 205 kts 32°
2026-04-16 18:38 -24.80758 -47.96534 8931 ft 205 kts 32°
2026-04-16 18:38 -24.79562 -47.95691 8916 ft 205 kts 32°
2026-04-16 18:39 -24.78350 -47.94835 8921 ft 204 kts 32°
2026-04-16 18:39 -24.77163 -47.94000 8931 ft 204 kts 31°
2026-04-16 18:39 -24.75962 -47.93153 8925 ft 204 kts 32°
2026-04-16 18:39 -24.74762 -47.92308 8932 ft 205 kts 32°
2026-04-16 18:40 -24.73561 -47.91463 8921 ft 204 kts 31°
2026-04-16 18:40 -24.72350 -47.90614 8920 ft 204 kts 32°
2026-04-16 18:40 -24.71162 -47.89780 8923 ft 204 kts 32°
2026-04-16 18:40 -24.69959 -47.88932 8921 ft 204 kts 32°
2026-04-16 18:41 -24.68764 -47.88090 8921 ft 204 kts 32°
2026-04-16 18:41 -24.67569 -47.87252 8925 ft 203 kts 32°
2026-04-16 18:41 -24.66387 -47.86420 8928 ft 204 kts 32°
2026-04-16 18:41 -24.65188 -47.85574 8926 ft 205 kts 31°
2026-04-16 18:42 -24.63987 -47.84730 8920 ft 204 kts 32°
2026-04-16 18:42 -24.62785 -47.83887 8933 ft 204 kts 32°
2026-04-16 18:42 -24.61590 -47.83048 8920 ft 205 kts 31°
2026-04-16 18:42 -24.60380 -47.82199 8928 ft 204 kts 31°
2026-04-16 18:43 -24.59185 -47.81358 8925 ft 204 kts 31°
2026-04-16 18:43 -24.57984 -47.80517 8927 ft 204 kts 31°
2026-04-16 18:43 -24.56790 -47.79680 8928 ft 204 kts 32°
2026-04-16 18:43 -24.55577 -47.78830 8934 ft 205 kts 32°
2026-04-16 18:44 -24.54380 -47.77990 8926 ft 204 kts 31°
2026-04-16 18:44 -24.53186 -47.77150 8930 ft 204 kts 32°
2026-04-16 18:44 -24.51965 -47.76297 8928 ft 205 kts 32°
2026-04-16 18:44 -24.50778 -47.75467 8920 ft 205 kts 32°
2026-04-16 18:45 -24.49571 -47.74618 8922 ft 205 kts 32°
2026-04-16 18:45 -24.48364 -47.73775 8928 ft 205 kts 32°
2026-04-16 18:45 -24.47162 -47.72930 8912 ft 205 kts 32°
2026-04-16 18:45 -24.45959 -47.72088 8920 ft 204 kts 32°
2026-04-16 18:46 -24.44746 -47.71238 8933 ft 205 kts 32°
2026-04-16 18:46 -24.43538 -47.70393 8918 ft 205 kts 32°
2026-04-16 18:46 -24.42341 -47.69556 8914 ft 204 kts 32°
2026-04-16 18:46 -24.41147 -47.68721 8915 ft 204 kts 32°
2026-04-16 18:47 -24.39935 -47.67874 8934 ft 204 kts 32°
2026-04-16 18:47 -24.38740 -47.67037 8927 ft 205 kts 32°
2026-04-16 18:47 -24.37523 -47.66189 8928 ft 206 kts 32°
2026-04-16 18:47 -24.36329 -47.65353 8924 ft 205 kts 32°
2026-04-16 18:48 -24.35111 -47.64502 8927 ft 206 kts 32°
2026-04-16 18:48 -24.33898 -47.63654 8926 ft 206 kts 32°
2026-04-16 18:48 -24.32692 -47.62811 8914 ft 206 kts 32°
2026-04-16 18:48 -24.31481 -47.61963 8913 ft 205 kts 32°
2026-04-16 18:49 -24.30275 -47.61122 8917 ft 205 kts 32°
2026-04-16 18:49 -24.29066 -47.60278 8922 ft 205 kts 32°
2026-04-16 18:49 -24.27873 -47.59449 8916 ft 204 kts 32°
2026-04-16 18:49 -24.26666 -47.58605 8934 ft 205 kts 32°
2026-04-16 18:50 -24.25459 -47.57766 8930 ft 205 kts 32°
2026-04-16 18:50 -24.24264 -47.56930 8932 ft 205 kts 32°
2026-04-16 18:50 -24.23050 -47.56086 8932 ft 204 kts 32°
2026-04-16 18:50 -24.21863 -47.55257 8950 ft 205 kts 32°
2026-04-16 18:51 -24.20647 -47.54409 8963 ft 206 kts 32°
2026-04-16 18:51 -24.19433 -47.53563 8965 ft 207 kts 32°
2026-04-16 18:51 -24.18223 -47.52723 8961 ft 206 kts 32°
2026-04-16 18:51 -24.17377 -47.52132 8958 ft 206 kts 32°
2026-04-16 18:52 -24.16155 -47.51281 8966 ft 205 kts 32°
2026-04-16 18:52 -24.14947 -47.50440 8979 ft 205 kts 32°
2026-04-16 18:52 -24.13742 -47.49601 8981 ft 206 kts 32°
2026-04-16 18:52 -24.12533 -47.48758 8983 ft 206 kts 32°
2026-04-16 18:53 -24.11574 -47.48094 8986 ft 205 kts 32°
2026-04-16 18:53 -24.10740 -47.47500 8990 ft 206 kts 35°
2026-04-16 18:53 -24.09805 -47.46341 9002 ft 205 kts 50°
2026-04-16 18:53 -24.08730 -47.45318 9005 ft 205 kts 41°
2026-04-16 18:54 -24.07720 -47.44186 9003 ft 206 kts 45°
2026-04-16 18:54 -24.06710 -47.43064 8997 ft 206 kts 46°
2026-04-16 18:54 -24.05734 -47.41919 8999 ft 206 kts 47°
2026-04-16 18:54 -24.04758 -47.40770 9007 ft 206 kts 47°
2026-04-16 18:55 -24.03786 -47.39610 9006 ft 206 kts 48°
2026-04-16 18:55 -24.02821 -47.38453 9010 ft 207 kts 48°
2026-04-16 18:55 -24.01848 -47.37284 9009 ft 207 kts 48°
2026-04-16 18:55 -24.00894 -47.36136 9017 ft 206 kts 48°
2026-04-16 18:56 -23.99919 -47.34964 9021 ft 206 kts 47°
2026-04-16 18:56 -23.98754 -47.33563 9023 ft 206 kts 47°
2026-04-16 18:56 -23.97791 -47.32403 9027 ft 206 kts 47°
2026-04-16 18:56 -23.96826 -47.31245 9018 ft 207 kts 47°
2026-04-16 18:57 -23.95851 -47.30073 9016 ft 207 kts 47°
2026-04-16 18:57 -23.94883 -47.28912 9013 ft 206 kts 47°